Location: Berlin
(38.3226°N, 75.2177°W)
Time: 05:51:13
(UTC+00:00)

S3M - Pass Details

Date: 26 October 2020
Orbit: 950 x 1003 km, 83.0° (Epoch: 26 November)

Event Time Altitude Azimuth Distance (km) Brightness Sun altitude
Rises 00:12:06 0° 194° (SSW) 3,607 7.1 -24.8°
Reaches altitude 10° 00:14:36 10° 198° (SSW) 2,665 6.4 -25.3°
Maximum altitude 00:20:37 63° 279° (W) 1,058 4.3 -26.4°
Drops below altitude 10° 00:26:43 10° 0° (N) 2,696 6.4 -27.6°
Sets 00:29:16 0° 4° (N) 3,652 7.0 -28.1°
